contact:dominique.lefevre@mio.osupytheas.fr, maurice.libes@osupytheas.fr
Project:EMSO Ligure-ouest http://www.emso-fr.org/EMSO-France
Sensor Aquadopp, line 13 Serial AQD14315 
DOI : "https://doi.org/10.17882/74513; https://doi.org/10.17882/83244" 
Title:EMSO Ligure Ouest : Data ligne ALBATROSS capteur AQUADOPP - deploiement 2021
Id,Date,Profondeur,Latitude,Longitude,X_East,Y_North,Z_Up,Amplitude_X,Amplitude_Y,Amplitude_Z,Batterie,SoundSpeed,Heading,Pitch,Roll,Pressure,Temperature,Speed,Direction
, , m, degrees North, degrees East, m.s-1, m.s-1,m.s-1, 1, 1, 1, Volt, m.s-1, degree, degree, degree, dbar, degree_C, m.s-1, degree
13,2022-07-26T23:30:00,2400.0,42.79,6.0312,0.006,-0.024,-0.016,64.0,60.0,60.0,13.2,1504.9,317.9,0.1,-0.4,2393.1,13.34,0.024,166.0
13,2022-07-27T00:00:00,2400.0,42.79,6.0312,0.013,-0.024,0.012,65.0,61.0,59.0,13.2,1504.9,258.0,0.1,-0.4,2393.131,13.34,0.027,151.6
13,2022-07-27T00:30:00,2400.0,42.79,6.0312,0.01,-0.031,0.019,69.0,62.0,60.0,13.2,1504.9,302.7,0.1,-0.3,2393.066,13.34,0.032,162.1
13,2022-07-27T01:00:00,2400.0,42.79,6.0312,0.007,-0.03,-0.008,66.0,62.0,62.0,13.2,1504.9,305.9,0.0,-0.3,2393.034,13.34,0.03,166.9
13,2022-07-27T01:30:00,2400.0,42.79,6.0312,-0.015,-0.018,-0.001,65.0,59.0,61.0,13.2,1504.9,306.8,0.0,-0.4,2393.064,13.34,0.023,219.8
13,2022-07-27T02:00:00,2400.0,42.79,6.0312,0.004,-0.032,0.001,65.0,59.0,59.0,13.2,1504.9,301.8,0.0,-0.4,2393.048,13.34,0.032,172.9
13,2022-07-27T02:30:00,2400.0,42.79,6.0312,0.003,-0.029,-0.008,64.0,58.0,59.0,13.2,1504.9,297.3,0.0,-0.4,2393.063,13.34,0.029,174.1
13,2022-07-27T03:00:00,2400.0,42.79,6.0312,0.009,-0.022,-0.028,64.0,59.0,57.0,13.2,1504.9,270.8,0.0,-0.3,2393.032,13.34,0.023,157.8
13,2022-07-27T03:30:00,2400.0,42.79,6.0312,0.001,-0.016,-0.014,64.0,57.0,61.0,13.2,1504.9,270.6,0.1,-0.4,2393.072,13.34,0.016,176.4
13,2022-07-27T04:00:00,2400.0,42.79,6.0312,-0.003,-0.017,-0.016,66.0,58.0,58.0,13.2,1504.9,282.3,0.0,-0.3,2393.106,13.34,0.017,190.0
13,2022-07-27T04:30:00,2400.0,42.79,6.0312,0.021,-0.026,-0.012,62.0,57.0,60.0,13.2,1504.9,275.9,0.0,-0.4,2393.085,13.34,0.033,141.1
13,2022-07-27T05:00:00,2400.0,42.79,6.0312,-0.021,0.006,0.015,65.0,60.0,58.0,13.2,1504.9,278.8,0.1,-0.3,2393.142,13.34,0.021,285.9
13,2022-07-27T05:30:00,2400.0,42.79,6.0312,-0.031,0.002,0.001,67.0,61.0,61.0,13.2,1504.9,281.6,0.0,-0.3,2393.151,13.34,0.031,273.7
13,2022-07-27T06:00:00,2400.0,42.79,6.0312,-0.006,0.01,-0.012,68.0,59.0,58.0,13.2,1504.9,281.6,0.0,-0.4,2393.126,13.34,0.011,329.0
13,2022-07-27T06:30:00,2400.0,42.79,6.0312,-0.022,-0.009,-0.006,68.0,59.0,63.0,13.2,1504.9,268.4,0.0,-0.4,2393.128,13.34,0.023,247.8
13,2022-07-27T07:00:00,2400.0,42.79,6.0312,-0.003,-0.002,-0.004,61.0,59.0,60.0,13.2,1504.9,267.2,0.0,-0.4,2393.14,13.34,0.003,236.3
13,2022-07-27T07:30:00,2400.0,42.79,6.0312,-0.009,0.009,0.011,62.0,58.0,60.0,13.2,1504.9,267.1,0.0,-0.3,2393.122,13.34,0.012,315.0
13,2022-07-27T08:00:00,2400.0,42.79,6.0312,-0.003,0.019,0.003,64.0,60.0,62.0,13.2,1504.9,265.9,0.0,-0.4,2393.127,13.34,0.019,351.0
13,2022-07-27T08:30:00,2400.0,42.79,6.0312,-0.008,-0.003,-0.02,64.0,57.0,59.0,13.2,1504.9,270.2,0.0,-0.5,2393.101,13.34,0.008,249.4
13,2022-07-27T09:00:00,2400.0,42.79,6.0312,-0.021,0.018,0.012,65.0,59.0,61.0,13.2,1504.9,266.6,0.0,-0.3,2393.073,13.34,0.027,310.6
13,2022-07-27T09:30:00,2400.0,42.79,6.0312,0.0,0.011,-0.018,67.0,62.0,60.0,13.2,1504.9,263.6,0.1,-0.4,2393.098,13.34,0.011,0.0
13,2022-07-27T10:00:00,2400.0,42.79,6.0312,0.0,-0.001,-0.003,65.0,58.0,59.0,13.2,1504.9,257.5,0.0,-0.3,2393.025,13.34,0.001,180.0
13,2022-07-27T10:30:00,2400.0,42.79,6.0312,-0.004,0.007,0.002,64.0,60.0,57.0,13.2,1504.9,256.1,0.0,-0.3,2393.048,13.34,0.008,330.3
13,2022-07-27T11:00:00,2400.0,42.79,6.0312,0.006,0.01,0.01,63.0,59.0,59.0,13.2,1504.9,258.9,-0.1,-0.3,2393.011,13.34,0.011,31.0
13,2022-07-27T11:30:00,2400.0,42.79,6.0312,0.0,0.004,-0.029,65.0,63.0,64.0,13.2,1504.9,260.9,0.0,-0.3,2393.001,13.34,0.004,0.0
13,2022-07-27T12:00:00,2400.0,42.79,6.0312,0.014,0.013,-0.013,66.0,61.0,58.0,13.2,1504.9,266.0,-0.1,-0.4,2393.038,13.34,0.019,47.1
13,2022-07-27T13:00:00,2400.0,42.79,6.0312,0.004,-0.002,-0.011,60.0,58.0,62.0,13.2,1504.9,262.2,0.1,-0.4,2392.979,13.34,0.004,116.6
13,2022-07-27T13:30:00,2400.0,42.79,6.0312,0.002,-0.001,-0.006,62.0,58.0,61.0,13.2,1504.9,241.2,0.0,-0.3,2392.995,13.34,0.002,116.6
13,2022-07-27T14:00:00,2400.0,42.79,6.0312,0.01,-0.009,-0.005,65.0,61.0,60.0,13.2,1504.9,238.5,-0.1,-0.4,2393.03,13.34,0.013,132.0
13,2022-07-27T14:30:00,2400.0,42.79,6.0312,0.022,-0.007,-0.014,62.0,58.0,61.0,13.2,1504.9,243.6,0.0,-0.4,2392.994,13.34,0.023,107.6
13,2022-07-27T15:00:00,2400.0,42.79,6.0312,-0.006,-0.022,-0.015,66.0,58.0,61.0,13.2,1504.9,237.1,-0.1,-0.3,2393.045,13.34,0.022,195.3
13,2022-07-27T15:30:00,2400.0,42.79,6.0312,0.024,0.0,-0.008,68.0,60.0,60.0,13.2,1504.9,233.3,-0.1,-0.3,2393.035,13.34,0.024,90.0
13,2022-07-27T16:00:00,2400.0,42.79,6.0312,0.005,-0.019,-0.025,66.0,64.0,61.0,13.2,1504.9,225.2,0.0,-0.2,2393.093,13.34,0.019,165.3
13,2022-07-27T16:30:00,2400.0,42.79,6.0312,0.001,-0.018,0.004,65.0,60.0,63.0,13.2,1504.9,224.4,0.1,-0.3,2393.113,13.34,0.018,176.8
13,2022-07-27T17:00:00,2400.0,42.79,6.0312,0.024,-0.01,0.017,64.0,59.0,60.0,13.2,1504.9,225.7,-0.1,-0.3,2393.129,13.34,0.026,112.6
13,2022-07-27T17:30:00,2400.0,42.79,6.0312,-0.014,-0.013,-0.007,66.0,60.0,60.0,13.2,1504.9,227.4,0.0,-0.4,2393.167,13.34,0.019,227.1
13,2022-07-27T18:00:00,2400.0,42.79,6.0312,0.013,-0.012,-0.024,64.0,57.0,60.0,13.2,1504.9,227.9,-0.1,-0.4,2393.143,13.34,0.017,132.7
13,2022-07-27T18:30:00,2400.0,42.79,6.0312,-0.006,-0.026,-0.007,66.0,57.0,59.0,13.2,1504.9,235.1,-0.1,-0.4,2393.21,13.34,0.026,193.0
13,2022-07-27T19:00:00,2400.0,42.79,6.0312,-0.002,-0.027,-0.01,61.0,57.0,59.0,13.2,1504.9,233.0,-0.1,-0.2,2393.23,13.34,0.027,184.2
13,2022-07-27T19:30:00,2400.0,42.79,6.0312,-0.035,-0.012,0.025,67.0,60.0,63.0,13.2,1504.9,237.7,-0.1,-0.3,2393.249,13.34,0.037,251.1
13,2022-07-27T20:00:00,2400.0,42.79,6.0312,-0.017,-0.038,-0.023,63.0,56.0,58.0,13.1,1504.9,233.4,-0.1,-0.4,2393.201,13.34,0.041,204.1
13,2022-07-27T20:30:00,2400.0,42.79,6.0312,-0.022,-0.031,-0.018,66.0,60.0,60.0,13.2,1504.9,201.9,0.0,-0.3,2393.212,13.34,0.038,215.4
13,2022-07-27T21:00:00,2400.0,42.79,6.0312,-0.044,-0.026,-0.008,65.0,59.0,63.0,13.2,1504.9,194.2,0.1,-0.2,2393.179,13.34,0.051,239.4
13,2022-07-27T21:30:00,2400.0,42.79,6.0312,-0.02,-0.029,-0.035,65.0,59.0,58.0,13.1,1504.9,206.9,0.0,-0.3,2393.205,13.34,0.035,214.6
13,2022-07-27T22:00:00,2400.0,42.79,6.0312,-0.026,-0.031,0.002,64.0,58.0,62.0,13.2,1504.9,204.1,0.0,-0.3,2393.202,13.34,0.04,220.0
13,2022-07-27T22:30:00,2400.0,42.79,6.0312,-0.019,-0.017,-0.011,66.0,58.0,61.0,13.2,1504.9,207.9,-0.2,-0.3,2393.16,13.34,0.025,228.2
13,2022-07-27T23:00:00,2400.0,42.79,6.0312,-0.027,-0.019,-0.017,66.0,61.0,63.0,13.1,1504.9,220.0,0.0,-0.4,2393.122,13.34,0.033,234.9
